Temperature
16 17 18 18 18 17 16 15 14 14 12 10 10 9 9 9 9 9 9 9 9 10 10 11 12 12 12 13 13 14 14 15 15 15 15 15 14 14 13 13 12 12 12 12
18 18 18 18 17 16 14 13 13 12 9 9 9 9 8 8 8 8 8 8 8 9 9 9 10 10 11 11 12 12 12 13 14 14 15 15 14 14 13 13 12 12 12 12
16 17 18 16 14 14 10 9 9 9 8 8 8 8 8 7 7 7 7 7 8 8 8 8 9 9 10 10 10 11 11 12 12 12 13 14 14 13 13 12 12 12 12 12
14 17 18 13 12 11 9 9 9 9 8 8 7 7 7 8 8 8 9 9 9 9 9 9 9 9 9 9 10 10 10 11 11 11 11 12 13 13 12 12 12 12 12 11
13 16 16 13 13 12 12 9 8 8 9 9 9 8 8 10 10 10 9 9 9 10 10 10 10 9 9 9 9 9 10 10 10 10 11 11 11 12 12 11 11 12 12 11
14 16 15 11 11 12 12 9 8 8 8 9 8 7 8 10 10 9 10 10 10 10 10 10 10 10 9 9 9 9 9 9 9 9 10 10 10 10 11 11 11 11 11 11
13 14 11 9 10 11 10 8 9 9 9 9 8 8 9 9 9 9 10 10 10 10 9 9 9 9 9 9 9 9 9 9 9 9 9 9 9 9 10 10 10 10 11 11
11 12 10 9 9 9 9 10 10 10 9 9 9 8 8 8 9 9 9 9 9 9 9 9 9 9 9 9 9 9 9 8 9 9 8 8 9 9 9 9 9 10 10 11
8 9 9 10 10 11 11 10 10 9 9 8 8 8 8 8 8 8 8 8 8 8 8 8 8 8 8 8 9 8 8 8 8 8 8 8 8 8 8 8 8 9 10 10
7 8 10 10 10 11 10 9 9 9 8 8 8 8 8 7 7 7 7 7 7 6 6 6 6 7 7 7 8 8 8 8 8 8 8 8 8 7 7 7 8 8 10 10
7 8 9 10 10 10 9 9 9 8 8 8 7 7 7 6 6 6 6 6 6 5 5 5 5 6 6 6 6 7 7 7 8 8 8 7 7 7 7 7 7 8 9 10
7 9 8 9 10 9 9 8 8 8 7 7 7 6 6 6 5 5 5 5 5 5 5 5 5 5 5 5 5 5 6 6 7 8 8 7 7 7 7 6 7 7 8 10
10 10 10 9 9 9 8 8 8 7 7 6 6 5 5 5 4 4 4 4 4 4 4 4 4 4 4 4 4 4 5 6 6 7 7 7 7 6 6 6 6 7 8 9
10 9 9 9 8 8 8 8 7 6 6 5 5 5 4 4 4 4 4 4 4 4 4 4 3 4 4 4 4 4 4 5 6 6 7 7 7 6 6 6 6 7 8 9
9 9 9 8 8 8 7 7 6 5 5 5 4 4 3 3 3 3 3 3 3 3 3 3 3 3 3 3 3 3 4 4 5 6 6 6 6 6 6 5 6 7 8 9
9 8 8 8 8 7 6 6 5 5 4 4 4 3 3 3 3 3 3 3 3 3 3 3 3 3 3 3 3 3 3 4 4 5 6 6 6 6 6 6 6 7 8 9
8 7 8 7 7 6 6 5 4 4 3 3 3 3 3 3 3 3 3 3 3 3 3 3 3 3 3 3 3 3 3 4 4 5 6 6 6 6 6 6 7 7 8 9
8 8 7 7 6 5 5 4 4 3 3 3 2 2 3 3 3 3 3 3 3 3 3 3 3 3 3 3 3 3 3 4 4 5 5 6 6 6 6 6 7 8 8 9
8 7 7 6 6 5 4 3 3 3 3 3 2 2 2 3 3 3 4 4 3 3 3 3 3 3 3 3 3 3 3 4 5 5 5 6 6 6 6 7 7 8 9 9
7 7 6 6 5 4 3 3 3 3 4 3 2 2 2 3 3 4 4 4 4 3 3 3 3 3 3 3 3 4 4 4 5 5 5 6 6 6 7 7 8 9 9 10
6 6 5 5 4 4 3 3 3 3 4 3 2 2 2 3 3 4 4 4 5 4 4 4 4 4 4 4 4 4 5 5 5 5 6 6 6 7 7 8 8 9 10 10
6 5 5 4 4 4 4 3 3 4 4 3 2 2 3 3 4 4 4 5 5 5 4 4 4 4 4 5 5 5 5 5 6 6 6 6 7 7 8 8 9 10 11 11
5 5 4 4 3 3 4 4 4 3 3 2 2 2 3 3 4 4 4 5 5 5 5 5 5 5 5 5 5 6 6 6 6 6 6 7 7 8 9 9 10 11 11 11
5 4 4 4 3 3 3 4 3 3 2 2 2 3 3 4 4 4 5 5 5 6 6 6 6 6 6 6 6 6 6 6 6 7 7 8 8 9 9 10 11 11 11 11
4 4 4 3 2 2 2 2 2 2 2 2 3 3 4 4 4 4 5 6 6 6 6 6 6 6 6 6 7 7 7 7 8 8 9 9 10 10 10 11 11 11 12 12
4 4 3 3 2 2 2 2 1 1 2 2 3 3 4 4 4 5 5 6 6 7 7 7 7 7 7 7 8 8 8 9 9 10 10 10 11 11 11 11 12 12 12 12
4 4 4 4 3 3 3 2 2 2 2 3 3 3 3 4 4 5 6 6 7 7 7 7 7 8 8 8 9 9 9 10 10 11 11 11 11 11 12 12 12 12 12 12
Wind_Speed
8 7 3 5 9 9 3 5 6 3 5 9 10 9 10 13 15 18 19 19 18 17 15 15 14 13 12 12 11 10 10 9 10 11 10 10 9 9 7 6 5 3 1 1
4 4 3 3 7 6 6 6 5 7 8 11 9 9 11 14 18 19 19 20 20 19 19 19 18 17 15 13 12 11 10 10 10 9 9 10 10 9 8 7 6 4 3 2
4 5 3 5 10 6 7 7 7 5 5 9 12 14 14 14 15 16 17 17 17 17 17 17 16 15 13 13 12 10 9 9 10 10 9 9 9 9 10 9 7 6 5 4
2 4 2 3 4 8 9 7 6 4 5 8 11 13 12 11 12 14 15 15 15 15 16 15 16 15 13 12 11 10 9 8 8 8 10 9 7 9 10 8 8 7 7 7
3 2 1 4 6 8 3 3 4 6 10 11 12 10 9 13 16 16 16 15 15 15 15 14 16 15 13 13 11 10 10 9 8 7 8 9 8 9 8 8 8 7 8 9
3 2 2 5 12 15 3 1 3 7 13 16 13 12 10 10 12 14 16 16 16 15 14 14 15 12 11 13 12 12 12 10 8 7 7 7 8 8 7 8 9 10 9 9
3 1 4 6 12 9 5 8 13 14 16 17 13 17 17 16 16 18 19 19 18 16 15 14 14 11 12 13 14 14 12 11 10 9 8 7 6 6 7 9 9 10 10 9
5 4 3 6 6 3 7 11 14 16 17 18 19 20 20 19 18 17 18 18 17 15 17 16 14 12 14 15 15 13 12 12 12 10 9 6 5 5 6 7 9 10 9 8
2 2 6 5 6 10 11 13 14 15 17 18 19 21 20 19 18 18 19 19 16 16 18 17 14 13 15 17 15 13 12 13 13 11 9 7 6 5 5 5 7 10 10 10
1 4 7 10 11 11 12 13 14 15 17 17 19 21 22 20 18 16 18 18 17 17 18 18 16 15 15 15 13 12 13 13 12 10 9 8 6 5 4 4 6 9 11 12
3 7 9 9 10 12 12 12 14 15 17 16 20 23 23 22 21 20 19 18 17 18 19 20 18 17 16 13 11 12 13 13 12 11 10 8 7 7 6 4 4 8 11 13
5 9 7 11 11 12 12 13 15 18 18 15 17 21 23 21 20 20 20 19 20 20 21 21 19 17 15 13 11 11 11 11 10 9 8 8 7 7 9 8 9 14 15 13
8 9 9 12 11 10 11 15 18 18 19 22 17 18 22 22 20 21 22 23 23 23 23 22 20 18 15 14 12 11 11 11 9 9 8 8 7 6 6 5 9 14 17 17
10 8 9 9 11 14 16 18 17 18 19 20 19 21 23 24 24 25 25 25 25 24 24 22 21 19 14 13 12 12 11 13 11 8 8 8 7 6 5 5 6 5 10 16
10 10 11 13 12 14 16 17 19 20 19 20 21 23 25 26 26 26 25 25 24 24 23 22 21 18 13 12 12 12 10 8 8 8 8 8 7 6 6 7 8 6 6 9
11 12 12 13 16 17 17 19 19 20 22 24 25 25 26 26 26 26 24 23 22 22 21 20 19 16 12 11 11 10 9 13 11 7 7 8 7 7 7 8 8 7 10 11
9 11 12 16 17 18 18 18 20 21 23 26 26 26 26 26 26 25 23 21 19 18 17 17 15 12 10 9 9 8 8 8 11 8 7 8 7 7 7 8 8 8 10 13
10 10 13 16 18 19 20 20 21 23 24 25 25 25 26 26 25 25 22 20 18 16 14 13 11 9 8 7 6 6 6 6 6 6 7 7 7 7 7 8 8 9 10 12
12 12 14 15 16 16 17 20 22 23 23 22 24 25 25 25 24 23 20 17 16 15 13 12 13 9 6 5 4 4 6 6 6 6 6 7 7 7 8 7 7 9 12 13
11 13 14 15 15 16 18 19 20 21 21 22 23 24 25 25 24 23 19 14 10 10 11 12 10 7 5 4 3 3 5 6 6 6 6 7 7 8 7 6 8 10 12 13
13 14 14 15 16 17 17 18 18 20 22 22 23 24 25 25 24 21 17 13 11 10 11 12 8 6 5 4 3 3 5 6 6 7 7 7 7 7 6 7 9 11 11 12
11 12 13 15 17 19 19 17 17 20 22 22 24 24 25 25 24 20 16 11 11 13 10 8 7 7 7 6 4 4 5 6 6 6 7 6 6 5 6 8 9 10 10 11
10 10 12 15 17 19 19 17 18 20 21 23 24 24 24 23 19 17 16 12 12 14 12 8 9 11 10 6 5 5 6 6 6 6 6 6 6 6 8 9 9 9 9 10
9 10 13 15 16 16 19 21 21 19 20 21 21 22 22 19 17 15 14 17 18 17 12 11 12 10 7 4 4 5 5 5 5 5 6 6 6 8 9 9 9 9 9 10
9 9 11 15 16 15 16 19 20 19 19 19 21 22 18 16 17 18 18 18 20 17 11 11 11 8 3 2 2 2 2 3 3 4 6 7 9 10 10 9 9 9 9 8
8 11 12 13 12 12 13 14 15 16 17 18 19 19 18 17 18 17 16 18 20 17 11 8 7 6 4 3 2 3 3 4 5 6 7 8 10 10 9 9 10 9 8 8
9 9 10 11 11 12 13 14 15 17 17 17 19 19 18 18 18 19 19 17 15 13 10 9 8 8 8 7 6 6 5 5 5 6 7 7 7 8 8 9 8 8 8 8
Wind_Direction
245 255 270 274 295 311 266 223 232 309 54 14 20 32 27 19 11 6 1 356 351 345 341 336 334 333 331 331 332 331 323 302 279 266 252 241 234 229 224 223 225 232 258 349
285 282 273 299 345 1 29 16 15 67 44 357 1 6 4 2 359 354 348 342 337 334 330 326 324 323 321 321 325 332 334 330 319 297 267 248 238 226 217 215 211 200 188 154
276 305 358 21 359 37 60 39 35 51 8 349 351 347 338 334 335 330 325 320 315 313 308 305 303 302 301 303 309 317 323 330 336 331 308 274 249 230 218 209 199 189 180 169
302 3 21 129 75 94 105 77 59 49 344 331 311 298 284 275 275 279 281 284 287 289 290 292 293 293 290 289 293 298 303 312 322 331 329 313 273 243 227 205 196 189 182 178
71 349 118 108 15 354 319 95 23 331 314 304 290 283 266 252 247 252 264 274 280 282 284 286 289 290 290 285 281 284 286 291 300 312 323 327 308 270 237 211 199 190 181 179
66 323 302 358 327 322 262 150 293 293 292 296 305 302 292 266 263 270 281 286 286 285 284 282 282 283 283 280 277 276 275 274 277 284 297 310 315 298 251 219 208 193 182 183
22 321 64 332 326 4 38 299 293 285 283 288 281 277 286 288 286 285 286 286 287 286 284 279 279 277 276 274 268 267 269 270 270 267 271 280 302 307 272 234 205 193 182 181
11 13 349 323 11 36 265 261 272 281 285 288 288 288 290 291 289 287 287 284 282 281 280 280 277 272 272 270 266 266 267 266 263 259 260 270 282 304 291 243 208 194 181 177
102 218 239 255 241 246 258 272 280 286 293 296 298 298 296 293 291 291 289 288 283 279 279 279 275 266 264 267 266 266 266 265 261 256 250 251 255 277 297 260 220 195 188 186
128 262 265 266 263 268 276 282 291 297 301 303 300 300 299 297 295 291 289 287 285 283 281 280 276 269 260 261 261 258 260 263 261 252 248 245 243 239 254 273 230 205 194 191
282 272 286 280 274 284 297 301 300 298 298 296 295 298 297 298 296 294 293 290 286 284 283 281 278 270 265 260 252 253 257 259 258 246 238 239 238 232 227 248 252 224 207 194
256 258 264 281 287 296 299 296 295 298 300 296 294 297 299 298 297 296 294 292 290 287 285 283 279 272 264 259 249 245 252 255 252 243 233 230 238 248 232 240 261 249 235 211
249 268 277 284 291 291 290 293 299 301 302 305 302 299 302 301 300 297 296 294 292 291 289 286 281 274 265 259 249 238 239 245 246 239 230 226 229 240 258 275 262 240 223 208
275 294 298 289 289 293 296 299 302 303 303 303 305 305 306 305 304 302 300 299 297 295 292 288 282 275 264 255 249 242 237 243 241 234 229 225 225 228 232 262 270 234 211 200
291 295 286 290 295 299 302 308 311 311 309 309 309 309 310 309 307 305 303 301 299 296 293 290 284 276 262 253 247 239 232 229 231 230 228 228 225 225 233 253 256 226 185 181
295 298 298 302 304 306 310 313 313 312 313 314 314 315 313 310 307 305 304 303 303 302 302 297 288 278 262 251 244 235 225 232 233 225 227 229 228 230 240 252 246 215 195 177
314 309 309 311 312 313 313 313 313 314 315 316 316 316 314 313 311 310 310 309 308 306 305 303 297 286 272 256 240 227 215 224 236 231 224 226 227 233 246 250 237 211 194 175
300 294 294 301 308 312 313 314 314 315 316 316 316 316 315 315 314 313 314 314 315 313 312 314 311 304 286 265 235 213 206 209 214 219 224 226 230 237 248 245 224 203 175 166
305 297 299 303 306 307 310 313 315 316 316 318 319 317 315 314 314 315 315 316 319 321 322 322 319 317 305 282 246 204 204 210 218 223 227 229 234 244 247 228 202 179 163 164
298 298 303 306 307 308 311 315 317 318 319 321 319 317 318 318 318 318 316 311 305 306 310 315 317 313 304 294 274 206 208 213 218 225 227 231 236 244 232 201 177 163 162 168
301 307 310 311 312 314 316 319 321 322 321 321 320 320 319 317 317 318 315 314 309 307 310 307 305 296 287 277 271 224 216 217 220 225 226 229 232 231 206 176 165 161 164 168
306 310 311 314 318 321 323 323 323 323 323 323 322 322 321 321 320 319 312 307 306 306 308 299 291 280 277 275 254 237 227 222 222 220 222 224 221 207 178 167 161 158 160 164
308 307 312 318 321 320 321 326 329 328 325 324 322 322 322 320 319 320 322 319 316 310 308 293 282 282 279 260 237 231 228 224 218 215 215 214 205 184 171 161 157 155 155 158
309 311 314 318 322 326 329 331 330 328 323 321 321 322 323 323 324 323 321 317 317 314 314 301 293 291 278 238 228 223 219 215 211 211 206 194 178 167 160 155 154 154 155 155
311 314 320 328 332 331 328 327 329 328 327 327 326 328 329 327 327 329 328 327 327 324 324 322 321 319 297 229 212 203 196 189 184 172 161 156 154 154 153 153 155 155 157 159
318 324 324 321 320 323 328 330 330 330 329 329 331 333 333 334 333 334 334 334 335 335 339 345 356 4 26 49 67 84 96 104 111 119 131 138 143 146 148 152 153 157 161 164
319 321 325 331 333 333 333 330 328 328 328 331 332 334 336 339 340 341 340 341 344 349 358 8 17 26 37 46 55 62 68 76 88 103 118 128 136 141 148 150 153 155 160 165
Height
1514 1509 1509 1510 1509 1508 1512 1516 1521 1518 1523 1527 1524 1521 1518 1515 1511 1507 1503 1500 1498 1494 1491 1488 1484 1480 1477 1473 1469 1465 1462 1459 1456 1455 1454 1453 1453 1452 1451 1450 1449 1448 1447 1446
1512 1506 1508 1511 1511 1511 1515 1519 1519 1523 1531 1531 1527 1523 1519 1515 1512 1508 1504 1501 1497 1493 1488 1485 1481 1477 1473 1469 1465 1461 1456 1452 1449 1447 1446 1445 1445 1446 1446 1445 1444 1444 1444 1444
1521 1512 1509 1521 1524 1521 1529 1532 1532 1533 1536 1531 1526 1522 1519 1515 1511 1507 1502 1497 1493 1488 1484 1480 1476 1473 1468 1465 1461 1457 1452 1448 1444 1441 1439 1438 1437 1438 1439 1439 1439 1440 1441 1441
1524 1516 1522 1537 1529 1528 1532 1535 1534 1534 1532 1529 1525 1519 1514 1510 1505 1500 1496 1492 1488 1484 1479 1475 1471 1467 1462 1459 1456 1452 1448 1444 1440 1436 1434 1431 1430 1430 1431 1433 1434 1435 1436 1438
1531 1526 1523 1530 1529 1530 1528 1533 1535 1533 1529 1524 1518 1513 1508 1505 1500 1496 1492 1487 1483 1478 1473 1469 1465 1461 1456 1453 1450 1447 1443 1440 1436 1432 1429 1427 1424 1423 1424 1425 1427 1429 1431 1433
1528 1527 1530 1542 1535 1529 1529 1532 1534 1530 1525 1520 1515 1511 1502 1499 1495 1490 1485 1480 1475 1470 1466 1461 1457 1454 1449 1446 1443 1440 1437 1434 1431 1428 1425 1422 1419 1418 1417 1417 1419 1423 1425 1428
1532 1532 1539 1546 1537 1530 1539 1540 1531 1526 1520 1515 1511 1505 1496 1491 1487 1482 1477 1472 1467 1462 1457 1452 1449 1445 1440 1437 1435 1433 1430 1428 1425 1423 1420 1417 1414 1412 1410 1410 1411 1415 1419 1423
1541 1541 1547 1543 1539 1541 1541 1531 1525 1520 1515 1509 1503 1496 1489 1483 1477 1472 1467 1463 1458 1453 1447 1443 1440 1436 1430 1427 1425 1424 1422 1420 1418 1416 1414 1412 1409 1406 1405 1403 1404 1407 1412 1417
1548 1550 1546 1541 1539 1535 1531 1526 1521 1516 1510 1504 1496 1489 1482 1475 1468 1463 1457 1452 1447 1441 1435 1431 1429 1425 1420 1417 1415 1413 1411 1410 1409 1408 1407 1405 1403 1401 1399 1397 1397 1399 1406 1411
1547 1545 1542 1537 1534 1530 1527 1522 1517 1511 1504 1498 1490 1482 1474 1466 1459 1453 1446 1440 1435 1429 1423 1417 1415 1413 1409 1406 1405 1402 1401 1400 1400 1399 1399 1398 1397 1396 1394 1392 1392 1393 1400 1405
1547 1542 1537 1532 1530 1526 1521 1516 1511 1504 1498 1491 1483 1474 1466 1457 1449 1442 1435 1429 1423 1417 1410 1404 1401 1398 1397 1395 1393 1391 1390 1390 1390 1390 1390 1390 1390 1389 1388 1386 1387 1389 1394 1400
1547 1539 1536 1529 1525 1520 1515 1510 1503 1496 1488 1481 1474 1465 1456 1447 1439 1431 1423 1416 1409 1403 1397 1391 1388 1384 1383 1382 1381 1380 1379 1380 1380 1381 1381 1382 1382 1382 1381 1380 1380 1382 1388 1395
1540 1535 1531 1526 1521 1516 1510 1503 1496 1490 1482 1472 1464 1456 1447 1437 1428 1419 1411 1404 1396 1389 1383 1377 1373 1370 1369 1368 1368 1367 1368 1369 1370 1372 1373 1374 1375 1374 1373 1373 1372 1375 1381 1388
1536 1531 1525 1520 1515 1510 1504 1497 1490 1482 1474 1465 1455 1446 1436 1426 1416 1408 1399 1391 1383 1376 1369 1363 1358 1355 1354 1354 1354 1355 1356 1359 1361 1362 1365 1366 1368 1368 1367 1367 1366 1368 1374 1382
1532 1528 1522 1516 1510 1504 1498 1490 1481 1472 1463 1454 1445 1436 1426 1416 1405 1396 1388 1379 1371 1363 1356 1350 1344 1341 1341 1341 1341 1342 1345 1348 1351 1354 1356 1359 1360 1361 1361 1360 1360 1362 1368 1376
1527 1522 1517 1511 1505 1498 1491 1482 1474 1464 1455 1445 1435 1426 1416 1407 1396 1386 1377 1369 1360 1351 1344 1337 1332 1329 1328 1329 1330 1332 1334 1338 1342 1345 1348 1351 1353 1353 1354 1353 1354 1357 1362 1369
1522 1516 1510 1504 1498 1491 1484 1476 1467 1457 1447 1437 1428 1417 1407 1397 1387 1377 1368 1360 1352 1343 1335 1328 1322 1319 1318 1319 1320 1322 1326 1330 1335 1338 1341 1344 1346 1347 1347 1347 1348 1351 1357 1364
1521 1515 1509 1503 1495 1486 1478 1470 1461 1450 1440 1431 1421 1410 1400 1390 1379 1369 1360 1351 1344 1336 1329 1323 1317 1314 1313 1313 1314 1317 1320 1324 1328 1332 1335 1338 1339 1340 1340 1341 1343 1347 1352 1361
1516 1511 1505 1498 1490 1482 1473 1464 1454 1444 1434 1424 1414 1404 1394 1384 1373 1363 1354 1346 1338 1331 1325 1320 1316 1312 1310 1310 1311 1313 1316 1320 1324 1327 1330 1332 1333 1334 1335 1336 1339 1344 1350 1357
1511 1505 1499 1492 1484 1476 1467 1457 1447 1437 1428 1418 1409 1398 1388 1377 1367 1357 1349 1341 1335 1329 1323 1318 1315 1312 1310 1310 1311 1312 1315 1317 1320 1323 1325 1327 1328 1329 1331 1333 1337 1342 1348 1355
1506 1500 1493 1486 1477 1469 1460 1451 1441 1432 1422 1413 1404 1394 1383 1372 1362 1353 1344 1336 1331 1325 1320 1316 1313 1311 1310 1310 1310 1311 1313 1315 1317 1319 1321 1323 1324 1326 1328 1332 1336 1342 1348 1355
1501 1495 1488 1480 1471 1461 1453 1445 1437 1428 1418 1409 1399 1389 1379 1367 1357 1348 1340 1334 1327 1321 1317 1313 1310 1308 1308 1308 1309 1309 1311 1312 1314 1315 1317 1319 1321 1324 1328 1332 1337 1343 1349 1356
1497 1491 1483 1475 1466 1457 1448 1440 1433 1424 1415 1405 1396 1386 1375 1365 1355 1345 1336 1329 1322 1317 1312 1308 1306 1305 1304 1305 1306 1307 1308 1309 1311 1313 1314 1317 1320 1324 1329 1334 1340 1345 1352 1358
1493 1486 1479 1471 1462 1453 1444 1437 1429 1421 1413 1403 1394 1384 1374 1362 1351 1343 1335 1326 1319 1314 1309 1305 1303 1301 1301 1301 1302 1303 1305 1306 1308 1310 1312 1316 1320 1326 1331 1337 1342 1348 1354 1360
1489 1482 1474 1466 1458 1451 1443 1435 1427 1419 1410 1401 1391 1382 1373 1363 1353 1342 1333 1325 1318 1313 1308 1305 1302 1301 1300 1300 1301 1302 1303 1305 1307 1310 1314 1319 1324 1329 1335 1340 1346 1351 1356 1361
1485 1479 1472 1465 1458 1451 1443 1435 1427 1419 1410 1400 1390 1381 1372 1362 1353 1343 1334 1327 1320 1315 1311 1308 1305 1304 1303 1304 1304 1306 1308 1310 1313 1317 1321 1325 1330 1335 1340 1345 1350 1354 1359 1363
1482 1476 1469 1462 1456 1450 1443 1436 1428 1419 1411 1402 1392 1383 1373 1364 1354 1346 1338 1331 1325 1320 1317 1314 1313 1311 1311 1311 1313 1315 1317 1319 1322 1325 1329 1332 1336 1340 1344 1348 1353 1357 1360 1364